Time,TemperatureF,DewpointF,PressureIn,WindDirection,WindDirectionDegrees,WindSpeedMPH,WindSpeedGustMPH,Humidity,HourlyPrecipIn,Conditions,Clouds,dailyrainin,SoftwareType,DateUTC
2013-04-26 00:03:00,51.0,18.0,30.28,West,263,3.0,8.0,27,0.00,,,0.00,,2013-04-26 04:03:00,
2013-04-26 00:12:00,51.0,18.0,30.28,West,263,3.0,8.0,27,0.00,,,0.00,,2013-04-26 04:12:00,
2013-04-26 00:23:00,50.0,20.0,30.28,SW,218,3.0,5.0,30,0.00,,,0.00,,2013-04-26 04:23:00,
2013-04-26 00:32:00,48.0,21.0,30.28,WSW,247,0.0,3.0,34,0.00,,,0.00,,2013-04-26 04:32:00,
2013-04-26 00:43:00,48.0,21.0,30.28,WSW,247,0.0,3.0,34,0.00,,,0.00,,2013-04-26 04:43:00,
2013-04-26 00:52:00,47.0,21.0,30.28,SSW,195,5.0,11.0,35,0.00,,,0.00,,2013-04-26 04:52:00,
2013-04-26 01:02:00,46.0,25.0,30.28,WSW,248,0.0,2.0,43,0.00,,,0.00,,2013-04-26 05:02:00,
2013-04-26 01:13:00,46.0,25.0,30.28,WSW,248,0.0,2.0,43,0.00,,,0.00,,2013-04-26 05:13:00,
2013-04-26 01:22:00,45.0,24.0,30.29,WSW,237,0.0,2.0,43,0.00,,,0.00,,2013-04-26 05:22:00,
2013-04-26 01:32:00,44.0,23.0,30.29,WSW,237,1.0,2.0,44,0.00,,,0.00,,2013-04-26 05:32:00,
2013-04-26 01:42:00,44.0,23.0,30.29,WSW,237,1.0,2.0,44,0.00,,,0.00,,2013-04-26 05:42:00,
2013-04-26 01:52:00,43.0,23.0,30.29,WSW,237,0.0,1.0,45,0.00,,,0.00,,2013-04-26 05:52:00,
2013-04-26 02:02:00,42.0,24.0,30.29,WSW,237,0.0,3.0,49,0.00,,,0.00,,2013-04-26 06:02:00,
2013-04-26 02:11:00,42.0,24.0,30.29,WSW,237,0.0,3.0,49,0.00,,,0.00,,2013-04-26 06:11:00,
2013-04-26 02:22:00,41.0,23.0,30.28,ENE,74,0.0,4.0,49,0.00,,,0.00,,2013-04-26 06:22:00,
2013-04-26 02:32:00,41.0,24.0,30.28,ENE,74,0.0,1.0,51,0.00,,,0.00,,2013-04-26 06:32:00,
2013-04-26 02:42:00,41.0,24.0,30.28,ENE,74,0.0,1.0,51,0.00,,,0.00,,2013-04-26 06:42:00,
2013-04-26 02:52:00,40.0,24.0,30.28,ENE,74,0.0,2.0,53,0.00,,,0.00,,2013-04-26 06:52:00,
2013-04-26 03:02:00,40.0,25.0,30.28,ENE,74,1.0,2.0,54,0.00,,,0.00,,2013-04-26 07:02:00,
2013-04-26 03:11:00,40.0,25.0,30.28,ENE,74,1.0,2.0,54,0.00,,,0.00,,2013-04-26 07:11:00,
2013-04-26 03:22:00,40.0,25.0,30.28,ESE,113,0.0,3.0,54,0.00,,,0.00,,2013-04-26 07:22:00,
2013-04-26 03:32:00,39.0,25.0,30.28,ESE,108,0.0,2.0,57,0.00,,,0.00,,2013-04-26 07:32:00,
2013-04-26 03:42:00,39.0,25.0,30.28,ESE,108,0.0,2.0,57,0.00,,,0.00,,2013-04-26 07:42:00,
2013-04-26 03:52:00,39.0,25.0,30.28,ESE,108,0.0,1.0,57,0.00,,,0.00,,2013-04-26 07:52:00,
2013-04-26 04:03:00,39.0,25.0,30.27,East,93,0.0,3.0,57,0.00,,,0.00,,2013-04-26 08:03:00,
2013-04-26 04:11:00,39.0,25.0,30.27,East,93,0.0,3.0,57,0.00,,,0.00,,2013-04-26 08:11:00,
2013-04-26 04:22:00,39.0,26.0,30.28,East,93,0.0,2.0,59,0.00,,,0.00,,2013-04-26 08:22:00,
2013-04-26 04:32:00,38.0,25.0,30.28,East,93,0.0,1.0,60,0.00,,,0.00,,2013-04-26 08:32:00,
2013-04-26 04:42:00,38.0,25.0,30.28,East,93,0.0,1.0,60,0.00,,,0.00,,2013-04-26 08:42:00,
2013-04-26 04:52:00,38.0,26.0,30.28,East,93,0.0,1.0,61,0.00,,,0.00,,2013-04-26 08:52:00,
2013-04-26 05:02:00,37.0,25.0,30.28,East,93,0.0,1.0,62,0.00,,,0.00,,2013-04-26 09:02:00,
2013-04-26 05:11:00,37.0,25.0,30.28,East,93,0.0,1.0,62,0.00,,,0.00,,2013-04-26 09:11:00,
2013-04-26 05:22:00,37.0,26.0,30.28,East,93,0.0,0.0,63,0.00,,,0.00,,2013-04-26 09:22:00,
2013-04-26 05:33:00,37.0,26.0,30.28,East,93,0.0,2.0,63,0.00,,,0.00,,2013-04-26 09:33:00,
2013-04-26 05:43:00,37.0,26.0,30.28,East,93,0.0,2.0,63,0.00,,,0.00,,2013-04-26 09:43:00,
2013-04-26 05:53:00,37.0,26.0,30.28,East,93,0.0,1.0,64,0.00,,,0.00,,2013-04-26 09:53:00,
2013-04-26 06:03:00,37.0,26.0,30.29,East,93,0.0,3.0,63,0.00,,,0.00,,2013-04-26 10:03:00,
2013-04-26 06:12:00,37.0,26.0,30.29,East,93,0.0,3.0,63,0.00,,,0.00,,2013-04-26 10:12:00,
2013-04-26 06:23:00,37.0,26.0,30.29,East,93,0.0,0.0,64,0.00,,,0.00,,2013-04-26 10:23:00,
2013-04-26 06:33:00,36.0,25.0,30.30,East,93,0.0,1.0,64,0.00,,,0.00,,2013-04-26 10:33:00,
2013-04-26 06:42:00,36.0,25.0,30.30,East,93,0.0,1.0,64,0.00,,,0.00,,2013-04-26 10:42:00,
2013-04-26 06:52:00,36.0,25.0,30.30,East,93,0.0,0.0,65,0.00,,,0.00,,2013-04-26 10:52:00,
2013-04-26 07:02:00,36.0,26.0,30.31,East,93,0.0,0.0,66,0.00,,,0.00,,2013-04-26 11:02:00,
2013-04-26 07:11:00,36.0,26.0,30.31,East,93,0.0,0.0,66,0.00,,,0.00,,2013-04-26 11:11:00,
2013-04-26 07:22:00,35.0,25.0,30.31,East,93,0.0,2.0,67,0.00,,,0.00,,2013-04-26 11:22:00,
2013-04-26 07:32:00,35.0,26.0,30.32,East,93,0.0,0.0,68,0.00,,,0.00,,2013-04-26 11:32:00,
2013-04-26 07:42:00,35.0,26.0,30.32,East,93,0.0,0.0,68,0.00,,,0.00,,2013-04-26 11:42:00,
2013-04-26 07:52:00,35.0,26.0,30.33,East,93,0.0,0.0,68,0.00,,,0.00,,2013-04-26 11:52:00,
2013-04-26 08:02:00,35.0,26.0,30.33,East,93,0.0,1.0,69,0.00,,,0.00,,2013-04-26 12:02:00,
2013-04-26 08:11:00,35.0,26.0,30.33,East,93,0.0,1.0,69,0.00,,,0.00,,2013-04-26 12:11:00,
2013-04-26 08:21:00,36.0,27.0,30.33,East,92,0.0,2.0,69,0.00,,,0.00,,2013-04-26 12:21:00,
2013-04-26 08:32:00,37.0,27.0,30.34,East,93,0.0,0.0,68,0.00,,,0.00,,2013-04-26 12:32:00,
2013-04-26 08:42:00,37.0,27.0,30.34,East,93,0.0,0.0,68,0.00,,,0.00,,2013-04-26 12:42:00,
2013-04-26 08:52:00,37.0,27.0,30.35,East,93,0.0,0.0,67,0.00,,,0.00,,2013-04-26 12:52:00,
2013-04-26 09:01:00,39.0,29.0,30.35,East,93,0.0,0.0,66,0.00,,,0.00,,2013-04-26 13:01:00,
2013-04-26 09:11:00,39.0,29.0,30.35,East,93,0.0,0.0,66,0.00,,,0.00,,2013-04-26 13:11:00,
2013-04-26 09:22:00,40.0,30.0,30.35,East,93,0.0,0.0,67,0.00,,,0.00,,2013-04-26 13:22:00,
2013-04-26 09:32:00,44.0,33.0,30.36,East,93,0.0,1.0,64,0.00,,,0.00,,2013-04-26 13:32:00,
2013-04-26 09:42:00,44.0,33.0,30.36,East,93,0.0,1.0,64,0.00,,,0.00,,2013-04-26 13:42:00,
2013-04-26 09:52:00,45.0,33.0,30.36,East,93,0.0,1.0,63,0.00,,,0.00,,2013-04-26 13:52:00,
2013-04-26 10:01:00,50.0,32.0,30.36,WSW,247,1.0,3.0,49,0.00,,,0.00,,2013-04-26 14:01:00,
2013-04-26 10:11:00,50.0,32.0,30.36,WSW,247,1.0,3.0,49,0.00,,,0.00,,2013-04-26 14:11:00,
2013-04-26 10:21:00,51.0,30.0,30.36,WSW,254,1.0,3.0,44,0.00,,,0.00,,2013-04-26 14:21:00,
2013-04-26 10:32:00,54.0,30.0,30.36,NNW,333,0.0,3.0,39,0.00,,,0.00,,2013-04-26 14:32:00,
2013-04-26 10:42:00,54.0,30.0,30.36,NNW,333,0.0,3.0,39,0.00,,,0.00,,2013-04-26 14:42:00,
2013-04-26 10:51:00,55.0,29.0,30.36,North,1,2.0,6.0,36,0.00,,,0.00,,2013-04-26 14:51:00,
2013-04-26 11:01:00,55.0,26.0,30.35,NNE,24,3.0,8.0,33,0.00,,,0.00,,2013-04-26 15:01:00,
2013-04-26 11:12:00,55.0,26.0,30.35,NNE,24,3.0,8.0,33,0.00,,,0.00,,2013-04-26 15:12:00,
2013-04-26 11:21:00,56.0,27.0,30.35,North,354,1.0,8.0,33,0.00,,,0.00,,2013-04-26 15:21:00,
2013-04-26 11:33:00,57.0,27.0,30.36,East,95,3.0,8.0,32,0.00,,,0.00,,2013-04-26 15:33:00,
2013-04-26 11:43:00,57.0,27.0,30.36,East,95,3.0,8.0,32,0.00,,,0.00,,2013-04-26 15:43:00,
2013-04-26 11:53:00,57.0,29.0,30.37,WSW,249,1.0,6.0,34,0.00,,,0.00,,2013-04-26 15:53:00,
2013-04-26 12:03:00,58.0,28.0,30.36,NNW,331,2.0,6.0,31,0.00,,,0.00,,2013-04-26 16:03:00,
2013-04-26 12:13:00,58.0,28.0,30.36,NNW,331,2.0,6.0,31,0.00,,,0.00,,2013-04-26 16:13:00,
2013-04-26 12:23:00,59.0,28.0,30.36,SW,225,1.0,4.0,31,0.00,,,0.00,,2013-04-26 16:23:00,
2013-04-26 12:33:00,60.0,31.0,30.36,SW,232,3.0,9.0,33,0.00,,,0.00,,2013-04-26 16:33:00,
2013-04-26 12:42:00,60.0,31.0,30.36,SW,232,3.0,9.0,33,0.00,,,0.00,,2013-04-26 16:42:00,
2013-04-26 12:52:00,61.0,30.0,30.36,South,172,1.0,11.0,31,0.00,,,0.00,,2013-04-26 16:52:00,
2013-04-26 13:02:00,60.0,29.0,30.36,ENE,66,2.0,6.0,31,0.00,,,0.00,,2013-04-26 17:02:00,
2013-04-26 13:12:00,60.0,29.0,30.36,ENE,66,2.0,6.0,31,0.00,,,0.00,,2013-04-26 17:12:00,
2013-04-26 13:22:00,61.0,29.0,30.36,NE,44,4.0,6.0,30,0.00,,,0.00,,2013-04-26 17:22:00,
2013-04-26 13:32:00,62.0,30.0,30.35,North,358,4.0,7.0,30,0.00,,,0.00,,2013-04-26 17:32:00,
2013-04-26 13:42:00,62.0,30.0,30.35,North,358,4.0,7.0,30,0.00,,,0.00,,2013-04-26 17:42:00,
2013-04-26 13:51:00,63.0,31.0,30.35,SW,232,2.0,7.0,30,0.00,,,0.00,,2013-04-26 17:51:00,
2013-04-26 14:02:00,63.0,29.0,30.35,WNW,289,1.0,7.0,28,0.00,,,0.00,,2013-04-26 18:02:00,
2013-04-26 14:12:00,63.0,29.0,30.35,WNW,289,1.0,7.0,28,0.00,,,0.00,,2013-04-26 18:12:00,
2013-04-26 14:22:00,63.0,30.0,30.34,WSW,255,3.0,6.0,29,0.00,,,0.00,,2013-04-26 18:22:00,
2013-04-26 14:33:00,63.0,29.0,30.34,East,81,2.0,5.0,28,0.00,,,0.00,,2013-04-26 18:33:00,
2013-04-26 14:42:00,63.0,29.0,30.34,East,81,2.0,5.0,28,0.00,,,0.00,,2013-04-26 18:42:00,
2013-04-26 14:52:00,64.0,31.0,30.35,SW,218,2.0,8.0,29,0.00,,,0.00,,2013-04-26 18:52:00,
2013-04-26 15:02:00,64.0,31.0,30.33,WSW,256,0.0,7.0,29,0.00,,,0.00,,2013-04-26 19:02:00,
2013-04-26 15:12:00,64.0,31.0,30.33,WSW,256,0.0,7.0,29,0.00,,,0.00,,2013-04-26 19:12:00,
2013-04-26 15:22:00,65.0,31.0,30.33,SSW,210,2.0,5.0,28,0.00,,,0.00,,2013-04-26 19:22:00,
2013-04-26 15:32:00,65.0,30.0,30.32,West,272,2.0,5.0,27,0.00,,,0.00,,2013-04-26 19:32:00,
2013-04-26 15:42:00,65.0,30.0,30.32,West,272,2.0,5.0,27,0.00,,,0.00,,2013-04-26 19:42:00,
2013-04-26 15:52:00,65.0,33.0,30.32,SW,232,2.0,4.0,30,0.00,,,0.00,,2013-04-26 19:52:00,
2013-04-26 16:02:00,65.0,33.0,30.31,North,353,2.0,8.0,30,0.00,,,0.00,,2013-04-26 20:02:00,
2013-04-26 16:11:00,65.0,33.0,30.31,NNE,13,3.0,7.0,30,0.00,,,0.00,,2013-04-26 20:11:00,
2013-04-26 16:22:00,65.0,33.0,30.31,NNE,13,3.0,7.0,30,0.00,,,0.00,,2013-04-26 20:22:00,
2013-04-26 16:32:00,64.0,31.0,30.31,North,0,2.0,7.0,29,0.00,,,0.00,,2013-04-26 20:32:00,
2013-04-26 16:42:00,64.0,31.0,30.31,North,0,2.0,7.0,29,0.00,,,0.00,,2013-04-26 20:42:00,
2013-04-26 16:52:00,64.0,32.0,30.30,North,8,2.0,6.0,30,0.00,,,0.00,,2013-04-26 20:52:00,
2013-04-26 17:02:00,65.0,32.0,30.29,West,262,3.0,7.0,29,0.00,,,0.00,,2013-04-26 21:02:00,
2013-04-26 17:11:00,65.0,32.0,30.29,West,262,3.0,7.0,29,0.00,,,0.00,,2013-04-26 21:11:00,
2013-04-26 17:22:00,65.0,32.0,30.30,NE,56,1.0,6.0,29,0.00,,,0.00,,2013-04-26 21:22:00,
2013-04-26 17:33:00,65.0,31.0,30.29,NNE,17,3.0,10.0,28,0.00,,,0.00,,2013-04-26 21:33:00,
2013-04-26 17:42:00,65.0,31.0,30.29,NNE,17,3.0,10.0,28,0.00,,,0.00,,2013-04-26 21:42:00,
2013-04-26 17:53:00,65.0,32.0,30.29,WSW,256,4.0,10.0,29,0.00,,,0.00,,2013-04-26 21:53:00,
2013-04-26 18:03:00,63.0,32.0,30.28,North,0,2.0,6.0,31,0.00,,,0.00,,2013-04-26 22:03:00,
2013-04-26 18:12:00,63.0,32.0,30.28,North,0,2.0,6.0,31,0.00,,,0.00,,2013-04-26 22:12:00,
2013-04-26 18:23:00,63.0,33.0,30.28,NW,304,3.0,6.0,33,0.00,,,0.00,,2013-04-26 22:23:00,
2013-04-26 18:33:00,63.0,33.0,30.31,SW,216,1.0,3.0,33,0.00,,,0.00,,2013-04-26 22:33:00,
2013-04-26 18:42:00,63.0,33.0,30.31,SW,216,1.0,3.0,33,0.00,,,0.00,,2013-04-26 22:42:00,
2013-04-26 18:52:00,63.0,33.0,30.30,WNW,300,0.0,5.0,33,0.00,,,0.00,,2013-04-26 22:52:00,
2013-04-26 19:02:00,62.0,33.0,30.30,WNW,300,0.0,2.0,33,0.00,,,0.00,,2013-04-26 23:02:00,
2013-04-26 19:12:00,62.0,33.0,30.30,WNW,300,0.0,2.0,33,0.00,,,0.00,,2013-04-26 23:12:00,
2013-04-26 19:21:00,62.0,34.0,30.32,WSW,256,1.0,6.0,35,0.00,,,0.00,,2013-04-26 23:21:00,
2013-04-26 19:32:00,61.0,33.0,30.33,SSW,208,0.0,2.0,35,0.00,,,0.00,,2013-04-26 23:32:00,
2013-04-26 19:42:00,61.0,33.0,30.33,SSW,208,0.0,2.0,35,0.00,,,0.00,,2013-04-26 23:42:00,
2013-04-26 19:52:00,61.0,34.0,30.33,SSW,208,0.0,1.0,36,0.00,,,0.00,,2013-04-26 23:52:00,
2013-04-26 20:01:00,60.0,34.0,30.33,SSW,208,0.0,1.0,37,0.00,,,0.00,,2013-04-27 00:01:00,
2013-04-26 20:11:00,60.0,34.0,30.33,SSW,208,0.0,1.0,37,0.00,,,0.00,,2013-04-27 00:11:00,
2013-04-26 20:21:00,59.0,35.0,30.33,SSW,205,1.0,2.0,40,0.00,,,0.00,,2013-04-27 00:21:00,
2013-04-26 20:32:00,58.0,34.0,30.35,SSW,205,0.0,1.0,40,0.00,,,0.00,,2013-04-27 00:32:00,
2013-04-26 20:42:00,58.0,34.0,30.35,SSW,205,0.0,1.0,40,0.00,,,0.00,,2013-04-27 00:42:00,
2013-04-26 20:51:00,57.0,35.0,30.35,SSW,205,0.0,0.0,43,0.00,,,0.00,,2013-04-27 00:51:00,
2013-04-26 21:01:00,57.0,36.0,30.34,SSW,202,0.0,0.0,45,0.00,,,0.00,,2013-04-27 01:01:00,
2013-04-26 21:12:00,57.0,36.0,30.34,SSW,202,0.0,0.0,45,0.00,,,0.00,,2013-04-27 01:12:00,
2013-04-26 21:21:00,56.0,34.0,30.34,SSW,202,0.0,0.0,44,0.00,,,0.00,,2013-04-27 01:21:00,
2013-04-26 21:32:00,56.0,35.0,30.33,SSW,202,0.0,0.0,45,0.00,,,0.00,,2013-04-27 01:32:00,
2013-04-26 21:42:00,56.0,35.0,30.33,SSW,202,0.0,0.0,45,0.00,,,0.00,,2013-04-27 01:42:00,
2013-04-26 21:52:00,56.0,36.0,30.32,SSW,202,0.0,0.0,47,0.00,,,0.00,,2013-04-27 01:52:00,
2013-04-26 22:02:00,56.0,36.0,30.33,SSW,202,0.0,0.0,47,0.00,,,0.00,,2013-04-27 02:02:00,
2013-04-26 22:11:00,56.0,36.0,30.33,SSW,202,0.0,0.0,47,0.00,,,0.00,,2013-04-27 02:11:00,
2013-04-26 22:22:00,55.0,35.0,30.32,SSW,202,0.0,1.0,46,0.00,,,0.00,,2013-04-27 02:22:00,
2013-04-26 22:32:00,55.0,36.0,30.32,SSW,202,0.0,1.0,49,0.00,,,0.00,,2013-04-27 02:32:00,
2013-04-26 22:42:00,55.0,36.0,30.32,SSW,202,0.0,1.0,49,0.00,,,0.00,,2013-04-27 02:42:00,
2013-04-26 22:52:00,55.0,38.0,30.32,SSW,202,0.0,0.0,53,0.00,,,0.00,,2013-04-27 02:52:00,
2013-04-26 23:02:00,54.0,41.0,30.32,SSW,197,0.0,1.0,62,0.00,,,0.00,,2013-04-27 03:02:00,
2013-04-26 23:11:00,54.0,41.0,30.32,SSW,197,0.0,1.0,62,0.00,,,0.00,,2013-04-27 03:11:00,
2013-04-26 23:22:00,53.0,42.0,30.33,SE,133,0.0,3.0,65,0.00,,,0.00,,2013-04-27 03:22:00,
2013-04-26 23:33:00,52.0,43.0,30.32,ENE,60,0.0,4.0,72,0.00,,,0.00,,2013-04-27 03:33:00,
2013-04-26 23:43:00,52.0,43.0,30.32,ENE,60,0.0,4.0,72,0.00,,,0.00,,2013-04-27 03:43:00,
2013-04-26 23:53:00,52.0,43.0,30.32,ENE,60,0.0,3.0,72,0.00,,,0.00,,2013-04-27 03:53:00,